Location: Unspecified
(48.7670°N, 0.0000°E)
Time: 03:43:27
(UTC+00:00)

Vanguard 2 Rocket - Pass Details

Date: 06 October 2020
Orbit: 554 x 3326 km, 32.9° (Epoch: 26 October)

Event Time Altitude Azimuth Distance (km) Brightness Sun altitude
Exits shadow 01:57:41 46° 172° (S) 3,716 9.6 -38.5°
Maximum altitude 01:57:48 46° 171° (S) 3,721 9.6 -38.5°
Drops below altitude 10° 02:16:10 10° 107° (ESE) 6,272 11.4 -36.4°
Sets 02:21:14 0° 103° (ESE) 7,208 11.9 -35.7°
